Location: Geelbroek
(52.9503°N, 6.5712°E)
Time: 20:35:34
(UTC+00:00)

ATLAS 2AS CENTAUR R/B - Pass Details

Date: 15 May 2026
Orbit: 1053 x 1158 km, 63.7° (Epoch: 7 June)

Event Time Altitude Azimuth Distance (km) Brightness Sun altitude
Rises 20:49:58 0° 274° (W) 3,873 6.3 -10.1°
Reaches altitude 10° 20:52:54 10° 283° (WNW) 2,905 5.8 -10.4°
Maximum altitude 20:59:08 36° 349° (NNW) 1,625 4.3 -11.0°
Drops below altitude 10° 21:05:19 10° 54° (NE) 2,878 5.0 -11.5°
Sets 21:08:13 0° 64° (ENE) 3,833 5.5 -11.7°
